Location: Narrabri
(30.3170°S, 149.7830°E)
Time: 05:53:49
(UTC+11:00)

Envisat - Pass Details

Date: 09 October 2017
Orbit: 764 x 766 km, 98.2° (Epoch: 16 December)

Event Time Altitude Azimuth Distance (km) Brightness Sun altitude
Rises 21:15:16 0° 163° (SSE) 3,258 6.4 -27.2°
Reaches altitude 10° 21:17:38 10° 160° (SSE) 2,325 5.5 -27.7°
Enters shadow 21:19:12 20° 155° (SSE) 1,729 4.8 -28.0°
